Location: Mittersill
(44.1801°N, 71.7142°W)
Time: 04:27:50
(UTC+00:00)

Cosmos 2219 Rocket - Pass Details

Date: 10 September 2024
Orbit: 827 x 845 km, 71.0° (Epoch: 04 October)

Event Time Altitude Azimuth Distance (km) Brightness Sun altitude
Rises 23:40:58 0° 205° (SSW) 3,391 5.5 -7.1°
Reaches altitude 10° 23:43:24 10° 206° (SSW) 2,460 4.8 -7.5°
Maximum altitude 23:49:03 85° 294° (WNW) 855 2.3 -8.5°
Drops below altitude 10° 23:54:46 10° 24° (NNE) 2,474 4.6 -9.5°
Sets 23:57:13 0° 25° (NNE) 3,411 5.3 -9.9°
